ONEWEB-0298 (49087 NORAD) Tracking and Keplerian Element Data

This shows tracking and keplerian element data for the satellite.

Feedback or suggestion? Click here.




ElementValue
Catalog49087
NameONEWEB-0298
Epoch Orbit351
Epoch Day300.58334491
Epoch Year2021
RAAN344.3706
Inclination87.551
Eccentricity0.0022038
Argument of Perigee61.4405
Mean Anonmoly63.4444
Mean Motion14.3332198
Decay Rate-0.01393184
L11 49087U 21075N 21300.58334491 -.01393184 00000-0 -53930+0 0 9996
L22 49087 87.5510 344.3706 0022038 61.4405 63.4444 14.33321980 3516

Live tracking and technical data element details for ONEWEB-0298 (NORAD 49087). ONEWEB-0298 can be tracked NOW for your location showing map with azimuth and elevation plus other details from your city location.

Track the satellite on the map from your city or location and see movement details for azimuth, elevation, latitude, longitude, range, height, and movement on the map or in text.







IsCatalogInMostPopularTable: catalog: 49087, numindb: 10
Update: records affected: 1



GetName: 49087 ONEWEB-0298

Hit Count: updated at: Thu, 28 Oct 2021 10:16:51 GMT